CW5039 Weather Reports


Display with metric or nautical units.
time (UTC)temp
F
wind
direction
speed
MPH
gust
MPH
rain 1hr
in
rain 24hr
in
rain mn
in
humidity
%
barometer
mb
20260901233404 61 255 19.0 24.0 0.00 0.00 0.00 77 1019.4
20260901231905 60 262 21.0 26.0 0.00 0.00 0.00 79 1019.4
20260901231404 60 271 20.0 26.0 0.00 0.00 0.00 80 1019.5
20260901224404 61 256 22.0 30.0 0.00 0.00 0.00 77 1019.3
20260901221404 60 264 21.0 28.0 0.00 0.00 0.00 75 1019.3
20260901215905 60 251 18.0 30.0 0.00 0.00 0.00 77 1019.4
20260901215404 60 253 19.0 24.0 0.00 0.00 0.00 78 1019.4
20260901214904 60 262 24.0 29.0 0.00 0.00 0.00 76 1019.4
20260901213905 59 250 16.0 21.0 0.00 0.00 0.00 79 1019.5
20260901212904 59 254 13.0 18.0 0.00 0.00 0.00 78 1019.4
20260901212404 59 251 14.0 20.0 0.00 0.00 0.00 81 1019.4
20260901211903 59 258 13.0 16.0 0.00 0.00 0.00 81 1019.6
20260901210404 58 256 13.0 17.0 0.00 0.00 0.00 82 1019.6
20260901205904 58 256 11.0 14.0 0.00 0.00 0.00 83 1019.7
20260901205404 58 275 14.0 18.0 0.00 0.00 0.00 83 1019.6
20260901204904 58 258 10.0 16.0 0.00 0.00 0.00 82 1019.6
20260901203904 57 257 12.0 14.0 0.00 0.00 0.00 84 1019.5
20260901203404 57 255 12.0 15.0 0.00 0.00 0.00 85 1019.6
20260901202904 57 264 10.0 13.0 0.00 0.00 0.00 85 1019.5
20260901202404 56 263 9.0 13.0 0.00 0.00 0.00 86 1019.5
20260901201904 56 271 10.0 13.0 0.00 0.00 0.00 86 1019.5
20260901201404 56 266 12.0 14.0 0.00 0.00 0.00 86 1019.5
20260901195904 55 274 5.0 6.0 0.00 0.00 0.00 89 1019.3
20260901194905 53 282 3.0 5.0 0.00 0.00 0.00 90 1019.3
20260901194405 53 282 3.0 7.0 0.00 0.00 0.00 89 1019.2
20260901192905 51 291 7.0 10.0 0.00 0.00 0.00 89 1018.9
20260901191405 51 298 10.0 14.0 0.00 0.00 0.00 89 1018.7
20260901190905 51 294 11.0 14.0 0.00 0.00 0.00 90 1018.7
20260901190405 50 291 12.0 16.0 0.00 0.00 0.00 89 1018.7
20260901185405 50 297 10.0 13.0 0.00 0.00 0.00 88 1018.6
20260901184905 51 287 10.0 14.0 0.00 0.00 0.00 89 1018.4
20260901183905 51 282 11.0 13.0 0.00 0.00 0.00 90 1018.4
20260901181905 48 286 8.0 12.0 0.00 0.00 0.00 90 1018.6
20260901180904 47 300 8.0 10.0 0.00 0.00 0.00 90 1018.4
20260901180405 47 293 8.0 12.0 0.00 0.00 0.00 89 1018.4
20260901171905 44 300 7.0 9.0 0.00 0.00 0.00 88 1018.4
20260901165406 45 304 6.0 9.0 0.00 0.00 0.00 88 1018.3
20260901164905 45 302 7.0 9.0 0.00 0.00 0.00 88 1018.3
20260901163405 45 311 7.0 9.0 0.00 0.00 0.00 88 1018.3
20260901162905 45 312 8.0 10.0 0.00 0.00 0.00 88 1018.3
20260901162405 45 309 6.0 9.0 0.00 0.00 0.00 88 1018.3
20260901161905 45 306 6.0 9.0 0.00 0.00 0.00 88 1018.3
20260901161405 45 308 7.0 9.0 0.00 0.00 0.00 87 1018.3
20260901160405 45 310 6.0 7.0 0.00 0.00 0.00 87 1018.2
20260901154905 46 302 5.0 6.0 0.00 0.00 0.00 85 1018.2
20260901152904 46 290 4.0 5.0 0.00 0.00 0.00 86 1018.3
20260901152405 46 290 3.0 3.0 0.00 0.00 0.00 86 1018.3
20260901151404 46 271 5.0 6.0 0.00 0.00 0.00 86 1018.3
20260901145905 46 270 3.0 5.0 0.00 0.00 0.00 86 1018.4
20260901144905 46 267 3.0 6.0 0.00 0.00 0.00 85 1018.5
20260901144405 46 268 5.0 7.0 0.00 0.00 0.00 86 1018.5
20260901143905 46 276 6.0 7.0 0.00 0.00 0.00 85 1018.6
20260901143405 46 277 5.0 8.0 0.00 0.00 0.00 86 1018.6
20260901142405 46 271 5.0 6.0 0.00 0.00 0.00 85 1018.8
20260901141905 46 272 5.0 6.0 0.00 0.00 0.00 84 1018.9
20260901141404 46 272 5.0 5.0 0.00 0.00 0.00 84 1018.9
20260901134904 46 281 7.0 9.0 0.00 0.00 0.00 84 1018.9
20260901133906 47 272 6.0 7.0 0.00 0.00 0.00 84 1019.0
20260901133404 47 277 5.0 6.0 0.00 0.00 0.00 84 1019.1
20260901130905 49 274 5.0 7.0 0.00 0.00 0.00 81 1019.1
20260901130405 50 272 5.0 9.0 0.00 0.00 0.00 80 1019.0
20260901125905 51 262 9.0 12.0 0.00 0.00 0.00 81 1018.9
20260901125405 50 256 7.0 13.0 0.00 0.00 0.00 82 1018.9
20260901124904 49 277 4.0 7.0 0.00 0.00 0.00 81 1018.9
20260901123904 51 279 0.0 0.0 0.00 0.00 0.00 82 1018.9
20260901121905 52 279 4.0 7.0 0.00 0.00 0.00 83 1018.6
20260901120405 52 300 6.0 9.0 0.00 0.00 0.00 83 1018.3
20260901114405 52 323 6.0 7.0 0.00 0.00 0.00 82 1018.6
20260901113405 51 313 5.0 7.0 0.00 0.00 0.00 82 1018.5
20260901111904 51 318 6.0 12.0 0.00 0.00 0.00 80 1018.2
20260901111406 51 297 6.0 12.0 0.00 0.00 0.00 80 1018.3
20260901110905 50 289 6.0 10.0 0.00 0.00 0.00 80 1018.3
20260901105904 51 311 3.0 5.0 0.00 0.00 0.00 78 1018.3
20260901104904 52 286 2.0 6.0 0.00 0.00 0.00 78 1018.2
20260901104404 52 267 5.0 9.0 0.00 0.00 0.00 77 1018.2
20260901103404 52 263 3.0 6.0 0.00 0.00 0.00 76 1018.2
20260901102405 52 272 3.0 8.0 0.00 0.00 0.00 76 1018.3
20260901101905 52 313 4.0 6.0 0.00 0.00 0.00 77 1018.2
20260901095404 53 246 7.0 12.0 0.00 0.00 0.00 77 1017.9
20260901094905 52 240 9.0 12.0 0.00 0.00 0.00 77 1017.8
20260901094404 52 239 7.0 12.0 0.00 0.00 0.00 78 1017.7
20260901093404 51 250 9.0 13.0 0.00 0.00 0.00 79 1017.7
20260901092404 52 244 10.0 13.0 0.00 0.00 0.00 78 1017.7
20260901090906 52 249 9.0 12.0 0.00 0.00 0.00 78 1017.8
20260901085404 52 247 12.0 15.0 0.00 0.00 0.00 78 1017.8
20260901084905 52 250 11.0 14.0 0.00 0.00 0.00 77 1017.8
20260901082905 52 237 12.0 14.0 0.00 0.00 0.00 78 1017.4
20260901081904 53 235 13.0 20.0 0.00 0.00 0.00 77 1017.4
20260901075905 54 236 16.0 20.0 0.00 0.00 0.00 77 1017.4
20260901075405 54 238 14.0 18.0 0.00 0.00 0.00 77 1017.4
20260901074405 54 227 17.0 21.0 0.00 0.00 0.00 78 1017.4
20260901073404 55 234 13.0 20.0 0.00 0.00 0.00 77 1017.2
20260901072904 54 240 14.0 17.0 0.00 0.00 0.00 77 1017.2
20260901072405 54 239 13.0 17.0 0.00 0.00 0.00 77 1017.0
20260901071404 54 248 20.0 24.0 0.00 0.00 0.00 76 1016.8
20260901065405 54 243 20.0 24.0 0.00 0.00 0.00 75 1016.8
20260901064405 55 247 17.0 24.0 0.00 0.00 0.00 73 1016.7
20260901063405 54 242 15.0 20.0 0.00 0.00 0.00 74 1016.6
20260901062905 54 237 18.0 24.0 0.00 0.00 0.00 74 1016.5
20260901061905 54 245 14.0 20.0 0.00 0.00 0.00 72 1016.3
20260901060405 54 240 13.0 16.0 0.00 0.02 0.00 73 1016.2
20260901055904 54 244 17.0 22.0 0.00 0.03 0.00 72 1016.2
20260901055404 54 238 14.0 20.0 0.00 0.03 0.00 71 1016.2
20260901054905 54 236 15.0 20.0 0.00 0.03 0.00 71 1016.2
20260901053904 54 245 16.0 22.0 0.00 0.03 0.00 73 1016.1
20260901051405 55 248 15.0 25.0 0.00 0.09 0.00 72 1016.0
20260901050405 56 241 21.0 28.0 0.00 0.09 0.00 70 1015.9
20260901045905 56 251 11.0 15.0 0.00 0.09 0.00 71 1015.9
20260901045404 56 243 17.0 24.0 0.00 0.09 0.00 70 1016.0
20260901044904 56 259 14.0 20.0 0.00 0.09 0.00 71 1016.0
20260901044404 56 264 14.0 20.0 0.00 0.09 0.00 70 1015.9
20260901041404 56 245 19.0 25.0 0.00 0.09 0.00 71 1015.3
20260901040905 57 256 18.0 25.0 0.00 0.09 0.00 72 1015.3
20260901040404 57 244 21.0 25.0 0.00 0.09 0.00 71 1015.2
20260901034404 57 226 26.0 30.0 0.00 0.11 0.00 72 1015.1
20260901033405 57 226 23.0 28.0 0.00 0.13 0.00 68 1014.9
20260901032404 58 254 14.0 24.0 0.00 0.14 0.00 67 1015.0
20260901031404 58 256 21.0 28.0 0.00 0.14 0.00 69 1014.8
20260901030404 57 249 18.0 25.0 0.00 0.14 0.00 69 1014.8
20260901024904 58 230 25.0 33.0 0.00 0.14 0.00 66 1014.7
20260901022904 57 254 18.0 26.0 0.00 0.14 0.00 71 1014.7
20260901022404 58 241 19.0 26.0 0.00 0.14 0.00 69 1014.7
20260901021405 58 212 14.0 21.0 0.00 0.14 0.00 70 1014.7
20260901020904 58 215 14.0 20.0 0.00 0.14 0.00 68 1014.7
20260901020404 58 236 17.0 24.0 0.00 0.14 0.00 67 1014.7
20260901015904 60 223 14.0 28.0 0.00 0.14 0.00 65 1014.7
20260901014404 58 242 27.0 35.0 0.00 0.15 0.00 65 1014.8
20260901013904 59 244 28.0 37.0 0.00 0.15 0.00 67 1014.8
20260901012404 58 238 26.0 33.0 0.00 0.15 0.00 65 1014.6
20260901010905 58 243 19.0 33.0 0.00 0.16 0.00 66 1014.6
20260901010405 59 231 22.0 35.0 0.00 0.16 0.00 64 1014.6
20260901005904 59 227 28.0 36.0 0.00 0.16 0.00 64 1014.8
20260901005404 59 241 29.0 35.0 0.00 0.16 0.00 67 1014.9
20260901004904 59 239 28.0 36.0 0.00 0.17 0.00 66 1015.0
20260901004403 59 234 28.0 33.0 0.00 0.18 0.00 67 1015.1
20260901003404 58 233 27.0 38.0 0.00 0.18 0.00 68 1015.3
20260901001404 59 240 24.0 31.0 0.00 0.18 0.00 68 1015.4
20260901000904 58 234 27.0 43.0 0.00 0.18 0.00 68 1015.4
20260831235404 58 249 24.0 31.0 0.00 0.19 0.00 68 1015.4
20260831234404 58 232 32.0 39.0 0.00 0.19 0.00 70 1015.1